カタログに戻る

FENGYUN 1C DEB

運用中PO
NORAD 29957·DEBRIS·🇨🇳 China

打ち上げ May 10, 1999 から Taiyuan Satellite Launch Center

Loading…

次のパス (今後24時間)

TLE

最新Source: Space-Track

元期: Sep 12, 2026, 10:10 UTC

1 29957U 99025KF  26255.42385503  .00009399  00000-0  19706-2 0  9992
2 29957  98.9208  46.0993 0031899  67.7222 357.8597 14.59609010 14450

AllMySatでFENGYUN 1C DEBをリアルタイム追跡

Download on the App Store